Location: Syracuse
(43.0480°N, 76.1480°W)
Time: 22:18:01
(UTC-04:00)

Daily predictions for brighter satellites

Satellite Brightness Start Highest point End
(mag) Time Altitude Azimuth Time Altitude Azimuth Time Altitude Azimuth
SL-24 R/B - RUBIN 2 4.4 20:01:51 10° SSW 20:07:38 65° ESE 20:14:04 10° NE
Lacrosse 5 rocket 2.4 20:05:59 10° WNW 20:09:29 37° SW 20:12:51 10° SSE
Cosmos 2084 3.4 20:05:39 10° NW 20:09:43 76° NE 20:13:59 10° SE
CZ-2D R/B 3.8 20:06:50 10° SE 20:10:29 41° ENE 20:14:10 10° N
Cosmos 1937 Rocket 4.2 20:07:08 10° N 20:12:00 36° ENE 20:16:52 10° SE
Cosmos 2297 Rocket 2.3 20:07:31 10° NNW 20:13:13 90° ENE 20:18:53 10° SSE
Meteor 2-15 Rocket 4.5 20:07:48 10° N 20:13:55 89° E 20:19:59 10° S
Cosmos 1821 Rocket 4.4 20:09:15 10° SSW 20:15:19 71° W 20:21:25 10° N
Cosmos 2082 4.1 20:10:24 10° NNW 20:15:59 67° WSW 20:21:33 10° SSE
FengYun 1-2 T 4.3 20:10:44 10° SSE 20:16:23 86° ENE 20:22:00 10° NNW
Cosmos 1605 Rocket 4.0 20:12:20 10° S 20:18:37 73° E 20:24:51 10° NNE
H-2A R/B 4.1 20:18:57 10° ENE 20:20:11 11° ENE 20:21:26 10° NE
Cosmos 2298 Rocket 4.1 20:15:06 10° NNW 20:20:24 64° ENE 20:25:40 10° SSE
BREEZE-M DEB (TANK) 4.0 20:17:43 10° NW 20:20:38 43° NNE 20:28:19 10° E
Cosmos 1626 Rocket 3.6 20:16:21 10° N 20:20:43 63° E 20:25:01 10° SSE
Cosmos 220 Rocket 4.0 20:18:05 10° NNW 20:22:20 85° WSW 20:26:32 10° SSE
USA 186 1.9 20:22:45 10° SSE 20:25:33 41° ENE 20:28:12 10° N
Cosmos 1455 Rocket 3.6 20:21:58 10° SSW 20:26:15 62° W 20:30:35 10° N
ALOS 2.2 20:22:01 10° SSE 20:26:41 77° ENE 20:31:23 10° N
Cosmos 1515 3.8 20:25:38 10° N 20:29:25 55° E 20:33:10 10° SSE
OAO 2 Rocket 4.3 20:25:10 10° WSW 20:29:36 32° S 20:33:36 12° ESE
Cosmos 2100 Rocket 4.5 20:24:37 10° SSE 20:30:20 39° E 20:36:01 10° NNE
Cosmos 1602 Rocket 3.5 20:26:57 10° N 20:31:25 82° E 20:35:49 10° S
CZ-4 DEB 4.1 20:30:36 14° ESE 20:32:28 22° ENE 20:35:00 10° NNE
ERS-1 Rocket 3.8 20:28:50 10° SE 20:33:16 33° ENE 20:37:43 10° N
Meteor 1-12 Rocket 4.3 20:30:37 10° S 20:36:23 87° E 20:42:18 10° N
Helios 1B rocket 4.0 20:32:39 10° N 20:36:32 40° WNW 20:40:21 10° SW
Cosmos 1763 Rocket 4.0 20:40:31 10° SSE 20:45:06 35° ESE 20:49:42 10° NE
Cosmos 2150 Rocket 4.0 20:40:10 10° NNW 20:45:22 90° S 20:50:33 10° SSE
Cosmos 2061 Rocket 4.2 20:40:38 10° SSE 20:46:36 47° E 20:52:33 10° NNE
Cosmos 1697 Rocket 2.6 20:41:47 10° SSW 20:47:25 80° ESE 20:53:05 10° NNE
Tiangong 1 1.6 20:45:03 10° W 20:48:03 45° SSW 20:49:40 22° SE
Cosmos 1939 Rocket 3.7 20:47:20 18° SE 20:49:50 33° ENE 20:53:36 10° N
Cosmos 1743 3.2 20:46:26 10° SSE 20:50:06 40° E 20:53:48 10° NNE
Cosmos 1459 Rocket 4.0 20:47:52 10° SSE 20:53:44 55° E 20:59:42 10° NNE
Cosmos 1066 Rocket 4.2 20:48:06 10° N 20:53:51 81° E 20:59:39 10° SSE
Cosmos 1898 Rocket 3.8 20:50:22 10° NNW 20:55:39 70° WSW 21:00:52 10° S
SL-16 R/B 3.2 21:00:03 20° SE 21:01:41 23° E 21:06:02 10° NE
Cosmos 1125 Rocket 4.5 20:57:07 10° N 21:01:43 30° ENE 21:03:59 22° ESE
Cosmos 1606 Rocket 3.8 21:01:24 13° SSE 21:05:06 45° E 21:09:21 10° NNE
Cosmos 2058 Rocket 4.0 21:03:44 25° ESE 21:05:07 30° E 21:09:02 10° NNE
Cosmos 468 Rocket 4.2 21:00:51 10° SSW 21:05:57 72° WNW 21:11:07 10° NNE
BREEZE-M DEB (TANK) 4.0 20:51:07 10° SW 21:08:09 71° SSE 21:12:09 16° ENE
Cosmos 2098 Rocket 4.4 21:02:48 11° SSE 21:08:32 38° E 21:13:36 10° NNE
Cosmos 841 Rocket 3.6 21:05:12 10° S 21:10:17 53° ESE 21:15:21 10° NNE
ASTEX 1 4.1 21:06:24 10° NNE 21:10:54 32° E 21:12:21 27° ESE
Cosmos 1980 Rocket 2.1 21:06:13 10° SSW 21:11:52 77° ESE 21:17:36 10° NNE
RESURS DK-1 3.1 21:11:08 10° NW 21:15:09 49° WSW 21:18:10 16° S
Cosmos 1814 Rocket 4.4 21:14:36 10° SSW 21:19:54 66° WNW 21:25:11 10° NNE
Cosmos 1726 Rocket 3.4 21:24:43 24° S 21:27:18 68° E 21:31:42 10° NNE
Cosmos 1842 3.4 21:23:33 10° N 21:27:22 51° E 21:27:49 48° ESE
Cosmos 1666 2.7 21:29:44 54° ESE 21:29:55 54° E 21:33:38 10° NNE
YAOGAN 6 3.5 21:30:59 35° ENE 21:30:59 35° ENE 21:34:08 10° N
Cosmos 2263 Rocket 3.0 21:30:15 10° N 21:35:15 33° NE 21:36:35 29° E
SL-08 R/B 4.4 21:29:48 13° S 21:35:24 70° E 21:41:31 10° NNE
Lacrosse 5 3.3 21:34:57 10° WNW 21:39:20 30° SW 21:41:56 19° S
Cosmos 1802 Rocket 4.2 21:33:52 10° SSW 21:40:17 77° W 21:46:45 10° N
Cosmos 1825 Rocket 4.3 21:37:12 10° NNW 21:41:31 52° W 21:44:12 21° SSW
Cosmos 2016 Rocket 4.0 21:38:53 10° S 21:45:01 83° W 21:51:17 10° N
Cosmos 1340 3.7 21:42:25 10° NNW 21:46:03 44° W 21:47:32 29° SSW
Cosmos 2322 Rocket 2.1 21:43:34 26° S 21:46:40 58° ESE 21:52:11 10° NNE
SPOT 5 2.8 21:47:47 51° SSE 21:49:02 78° ENE 21:53:46 10° N
SWAS 4.5 21:47:30 10° SSW 21:51:50 79° WNW 21:56:11 10° NNE
Envisat 3.4 21:49:38 28° S 21:52:17 61° W 21:57:20 10° NNW
MetOp-A 4.0 21:52:04 48° SSE 21:53:35 79° ENE 21:58:58 10° NNW
Cosmos 1953 Rocket 4.2 21:49:28 10° NNW 21:53:50 53° W 21:55:42 31° SSW
Cosmos 2228 2.9 21:55:49 69° ENE 21:55:49 69° ENE 21:59:47 10° NNE
H-2A R/B 2.0 21:55:01 62° SSW 21:55:35 73° WSW 21:59:45 10° NNW
Nimbus 7 Rocket 4.4 21:50:25 10° NNE 21:56:31 85° ESE 22:01:08 18° SSW
Meteor 2-9 Rocket 4.1 21:57:29 27° SSW 22:00:38 84° W 22:06:02 10° N
Cosmos 1375 Rocket 4.4 21:55:33 10° SSW 22:02:05 77° ESE 22:08:43 10° NE
Meteor 2-5 Rocket 4.2 21:56:42 10° N 22:02:19 43° ENE 22:02:35 43° E
Terra 3.4 22:03:43 23° NE 22:03:43 23° NE 22:06:43 10° NNE
Meteor 1-15 Rocket 4.2 22:02:12 30° S 22:05:19 88° WNW 22:11:12 10° N
USA 245 4.4 22:06:08 52° SSE 22:07:46 77° ENE 22:14:02 10° N
Cosmos 405 Rocket 3.9 22:13:33 10° N 22:15:53 36° N 22:15:53 36° N
BREEZE-M DEB (TANK) 3.5 22:15:50 10° WNW 22:17:24 35° W 22:17:24 35° W
Cosmos 2346 Rocket 4.4 22:12:56 10° N 22:19:07 66° E 22:19:34 63° ESE
H-2A R/B 2.7 22:25:29 41° NE 22:25:29 41° NE 22:29:16 10° N
BREEZE-M DEB (TANK) 4.0 22:12:27 10° SW 22:25:06 73° SSE 22:25:52 64° E
Meteor 2-17 Rocket 4.3 22:24:21 63° S 22:25:26 89° E 22:31:31 10° N
Tsikada Rocket 4.4 22:21:45 10° NNW 22:28:03 59° W 22:30:23 38° SSW
Cosmos 2278 Rocket 4.4 22:26:21 10° NNE 22:28:43 12° NE 22:29:36 12° NE
SL-08 RB Rocket 4.2 22:32:11 59° N 22:32:11 59° N 22:35:59 10° NNW
USA 215 3.7 22:37:03 43° ENE 22:38:36 51° NNE 22:44:53 10° NW
ARGOS 3.2 22:39:03 70° WSW 22:39:05 70° WSW 22:44:30 10° NNW
SPOT 1/Viking Rocket 4.0 22:44:10 57° W 22:44:10 57° W 22:49:14 10° NNW
NOAA 11 4.4 22:44:17 62° WSW 22:44:22 62° WSW 22:49:48 10° NNW
SL-16 R/B 2.9 22:41:43 21° SW 22:45:22 53° WNW 22:50:56 10° NNE
Cosmos 1844 Rocket 4.0 22:41:26 10° N 22:45:36 27° NE 22:45:36 27° NE
Cosmos 2360 Rocket 3.2 22:58:32 37° NNE 22:58:32 37° NNE 23:01:54 10° NNE
Cosmos 540 Rocket 4.4 22:55:48 43° W 22:56:24 45° WNW 23:01:21 10° N
Cosmos 2263 Rocket 3.3 23:14:06 10° NW 23:18:16 36° W 23:18:16 36° W
Cosmos 2322 Rocket 4.2 23:26:39 10° WSW 23:31:06 24° NW 23:35:36 10° N
Terra 3.8 23:42:36 25° NW 23:42:36 25° NW 23:44:56 10° NNW
Cosmos 2333 Rocket 4.5 23:51:29 15° NE 23:51:29 15° NE 23:52:34 10° NE
ATLAS 3B R/B 4.3 23:52:25 25° ENE 23:52:25 25° ENE 23:55:26 10° NE
